User: anonymous   Login
Location: Unspecified
(0.0000°N, 0.0000°E)
Time: 18:48:22
(UTC+00:00)
Language:

SMOS - Orbit

View from above orbital plane
View from above orbital plane
View from above satellite
View from above satellite

Ground track
Ground track

The orbit data is extracted from the following two-line orbital elements,

1 36036U 09059A   14297.46206191  .00000402  00000-0  14217-3 0  4947
2 36036 098.4435 122.9204 0001121 104.2079 255.9234 14.39788929261516
Epoch (UTC): 24 October 2014 11:05:22
Eccentricity: 0.0001121
inclination: 98.4435°
perigee height: 758 km
apogee height: 760 km
right ascension of ascending node: 122.9204°
argument of perigee: 104.2079°
revolutions per day: 14.39788929
mean anomaly at epoch: 255.9234°
orbit number at epoch: 26151

The dashed part of the orbit path shows where the satellite is in the earth's shadow,  

DLR